EW8444 Weather Reports


time (UTC)temp
F
wind
direction
speed
knots
gust
knots
rain 1hr
in
rain 24hr
in
rain mn
in
humidity
%
barometer
mb
20260906060924 70 286 0.0 0.0 0.00 0.01 0.00 90 1015.0
20260906060418 70 286 0.0 0.0 0.00 0.01 0.00 90 1015.3
20260906055918 70 286 0.0 0.0 0.00 0.01 0.00 89 1015.4
20260906055424 70 286 0.0 0.0 0.00 0.01 0.00 89 1015.4
20260906054921 70 286 0.0 0.0 0.00 0.01 0.00 89 1015.4
20260906054418 70 286 0.0 0.0 0.00 0.01 0.00 89 1015.6
20260906053918 70 286 0.0 0.0 0.00 0.01 0.00 89 1015.7
20260906053418 70 286 0.0 0.0 0.00 0.01 0.00 89 1015.8
20260906052921 71 286 0.0 0.0 0.00 0.01 0.00 89 1015.8
20260906052418 71 286 0.0 0.0 0.00 0.01 0.00 88 1015.9
20260906051924 71 286 0.0 0.0 0.00 0.01 0.00 88 1015.9
20260906051421 71 286 0.0 0.0 0.00 0.01 0.00 88 1015.9
20260906050918 71 286 0.0 0.9 0.00 0.01 0.00 88 1016.0
20260906050421 71 286 0.0 0.0 0.00 0.01 0.00 88 1015.8
20260906045924 71 286 0.0 0.0 0.00 0.01 0.00 88 1016.0
20260906045421 71 286 0.0 0.9 0.00 0.01 0.00 87 1016.1
20260906044918 72 286 0.0 0.9 0.00 0.01 0.00 88 1016.0
20260906044418 72 286 0.0 0.0 0.00 0.01 0.00 88 1016.0
20260906043918 72 286 0.0 0.0 0.00 0.01 0.00 87 1015.9
20260906043421 72 286 0.0 2.6 0.00 0.01 0.00 87 1015.9
20260906042918 72 286 0.0 0.0 0.01 0.01 0.00 87 1015.8
20260906042418 72 286 0.0 0.0 0.01 0.01 0.00 87 1015.8
20260906041918 73 286 0.0 0.0 0.01 0.01 0.00 87 1015.7
20260906041418 73 286 0.0 0.0 0.01 0.01 0.00 87 1015.9
20260906040918 73 286 0.0 0.0 0.01 0.01 0.00 87 1015.9
20260906040421 73 286 0.0 0.0 0.01 0.01 0.00 87 1015.9
20260906035918 73 286 0.0 0.0 0.01 0.01 0.00 87 1016.0
20260906035418 73 286 0.0 0.0 0.01 0.01 0.00 87 1016.0
20260906034921 73 286 0.0 0.9 0.01 0.01 0.00 87 1016.2
20260906034418 73 286 0.0 1.7 0.01 0.01 0.00 86 1016.3
20260906033927 73 286 0.0 0.0 0.01 0.01 0.00 86 1016.5
20260906033421 73 286 0.0 0.0 0.01 0.01 0.00 86 1016.6
20260906032924 73 286 0.0 0.0 0.00 0.00 0.00 86 1016.7
20260906032421 73 286 0.0 0.0 0.00 0.00 0.00 85 1016.5
20260906031918 73 286 0.0 0.0 0.00 0.00 0.00 85 1016.5
20260906031424 73 286 0.0 0.0 0.00 0.00 0.00 85 1016.5
20260906030921 73 286 0.0 0.0 0.00 0.00 0.00 85 1016.6
20260906030424 73 286 0.0 0.0 0.00 0.00 0.00 85 1016.6
20260906025918 73 286 0.0 0.0 0.00 0.00 0.00 85 1016.6
20260906025421 73 286 0.0 0.0 0.00 0.00 0.00 85 1016.5
20260906024924 73 286 0.0 0.0 0.00 0.00 0.00 85 1016.4
20260906024421 73 286 0.0 0.0 0.00 0.00 0.00 84 1016.4
20260906023921 73 286 0.0 0.0 0.00 0.00 0.00 84 1016.3
20260906023421 73 286 0.0 0.0 0.00 0.00 0.00 83 1016.0
20260906022918 73 286 0.0 0.0 0.00 0.00 0.00 84 1015.9
20260906022418 73 286 0.0 0.0 0.00 0.00 0.00 83 1015.8
20260906021921 73 286 0.0 0.0 0.00 0.00 0.00 83 1015.9
20260906021421 73 286 0.0 0.0 0.00 0.00 0.00 83 1016.0
20260906020918 73 286 0.0 0.0 0.00 0.00 0.00 83 1016.0
20260906020421 74 286 0.0 0.0 0.00 0.00 0.00 83 1015.9
20260906015918 74 286 0.0 0.0 0.00 0.00 0.00 83 1015.8
20260906015418 74 286 0.0 0.0 0.00 0.00 0.00 82 1015.5
20260906014921 74 286 0.0 0.0 0.00 0.00 0.00 82 1015.6
20260906014427 74 286 0.0 0.0 0.00 0.00 0.00 81 1015.7
20260906013921 74 286 0.0 0.0 0.00 0.00 0.00 81 1015.7
20260906013427 75 286 0.0 0.0 0.00 0.00 0.00 80 1015.7
20260906012921 75 286 0.0 0.0 0.00 0.00 0.00 79 1015.6
20260906012418 75 286 0.0 0.0 0.00 0.00 0.00 79 1015.5
20260906011918 76 286 0.0 0.0 0.00 0.00 0.00 79 1015.4
20260906011421 76 286 0.0 0.0 0.00 0.00 0.00 79 1015.2
20260906010918 76 286 0.0 0.0 0.00 0.00 0.00 78 1015.3
20260906010424 76 286 0.0 0.0 0.00 0.00 0.00 78 1015.4
20260906005918 77 286 0.0 0.0 0.00 0.00 0.00 78 1015.3
20260906005424 77 286 0.0 0.0 0.00 0.00 0.00 77 1015.2
20260906004918 77 286 0.0 0.0 0.00 0.00 0.00 77 1015.3
20260906004424 77 286 0.0 0.0 0.00 0.00 0.00 76 1015.2
20260906003921 77 286 0.0 0.0 0.00 0.00 0.00 76 1015.1
20260906003421 78 286 0.0 0.0 0.00 0.00 0.00 75 1015.0
20260906002918 78 286 0.0 0.0 0.00 0.00 0.00 75 1014.8
20260906002427 79 286 0.0 0.0 0.00 0.00 0.00 74 1014.8
20260906001918 79 286 0.0 0.0 0.00 0.00 0.00 74 1014.9
20260906001421 79 286 0.0 0.0 0.00 0.00 0.00 73 1014.8
20260906000927 80 286 0.0 0.0 0.00 0.00 0.00 73 1014.7
20260906000421 80 286 0.0 0.0 0.00 0.00 0.00 72 1014.8
20260905235921 80 286 0.0 0.0 0.00 0.00 0.00 71 1014.7
20260905235421 81 286 0.0 0.0 0.00 0.00 0.00 71 1014.8
20260905234918 81 286 0.0 0.0 0.00 0.00 0.00 70 1014.7
20260905234418 81 286 0.0 0.0 0.00 0.00 0.00 69 1014.6
20260905233921 81 286 0.0 0.0 0.00 0.00 0.00 69 1014.6
20260905233418 82 286 0.0 0.0 0.00 0.00 0.00 68 1014.5
20260905232918 82 286 0.0 0.9 0.00 0.00 0.00 67 1014.4
20260905232418 83 286 0.0 0.9 0.00 0.00 0.00 67 1014.4
20260905231918 83 286 0.0 0.9 0.00 0.00 0.00 66 1014.4
20260905231418 84 286 0.0 0.0 0.00 0.00 0.00 66 1014.2
20260905230918 84 286 0.0 0.9 0.00 0.00 0.00 65 1014.2
20260905230421 84 286 0.0 0.9 0.00 0.00 0.00 65 1014.2
20260905225921 84 286 0.0 1.7 0.00 0.00 0.00 64 1014.1
20260905225424 85 286 0.0 0.9 0.00 0.00 0.00 64 1014.0
20260905224921 85 286 0.0 1.7 0.00 0.00 0.00 63 1014.1
20260905224427 85 286 0.0 0.9 0.00 0.00 0.00 63 1014.1
20260905223918 85 286 0.0 0.9 0.00 0.00 0.00 63 1014.2
20260905223418 85 286 0.0 1.7 0.00 0.00 0.00 62 1014.1
20260905222921 85 286 0.0 1.7 0.00 0.00 0.00 63 1014.1
20260905222424 85 286 1.7 2.6 0.00 0.00 0.00 61 1014.1
20260905221927 85 287 0.0 1.7 0.00 0.00 0.00 61 1014.0
20260905221418 85 287 0.0 0.9 0.00 0.00 0.00 61 1014.1
20260905220918 85 287 0.0 1.7 0.00 0.00 0.00 61 1014.1
20260905220418 85 286 0.0 1.7 0.00 0.00 0.00 60 1014.2
20260905215924 85 286 0.0 1.7 0.00 0.00 0.00 60 1014.2
20260905215424 85 286 0.9 1.7 0.00 0.00 0.00 59 1014.2
20260905214918 85 286 0.0 3.5 0.00 0.00 0.00 59 1014.2
20260905214418 85 291 0.9 2.6 0.00 0.00 0.00 60 1014.2
20260905213924 85 291 0.9 0.9 0.00 0.00 0.00 60 1014.2
20260905213418 85 291 0.0 1.7 0.00 0.00 0.00 60 1014.3
20260905212918 84 291 0.0 1.7 0.00 0.00 0.00 59 1014.5
20260905212421 84 291 0.0 0.9 0.00 0.00 0.00 60 1014.5
20260905211921 84 291 0.0 1.7 0.00 0.00 0.00 59 1014.6
20260905211418 84 291 0.9 2.6 0.00 0.00 0.00 59 1014.5
20260905210921 84 291 0.9 2.6 0.00 0.00 0.00 60 1014.6
20260905210424 84 291 0.9 3.5 0.00 0.00 0.00 60 1014.8
20260905205918 83 291 2.6 2.6 0.00 0.00 0.00 61 1015.0
20260905205421 83 291 0.9 2.6 0.00 0.00 0.00 61 1015.0
20260905204918 83 291 1.7 2.6 0.00 0.00 0.00 62 1014.9
20260905204421 82 286 0.9 2.6 0.00 0.00 0.00 61 1014.8
20260905203921 82 286 0.0 1.7 0.00 0.00 0.00 61 1014.8
20260905203418 82 286 0.0 2.6 0.00 0.00 0.00 60 1014.7
20260905202918 82 286 0.0 2.6 0.00 0.00 0.00 61 1014.7
20260905202418 82 286 0.9 3.5 0.00 0.00 0.00 62 1014.8
20260905201918 81 300 0.9 2.6 0.00 0.00 0.00 63 1014.9
20260905201424 80 302 0.0 1.7 0.00 0.00 0.00 64 1015.0
20260905200918 80 307 0.9 1.7 0.00 0.00 0.00 63 1015.2
20260905200418 79 307 0.0 1.7 0.00 0.00 0.00 64 1015.2
20260905195918 79 307 0.0 3.5 0.00 0.00 0.00 65 1015.2
20260905195418 79 331 2.6 3.5 0.00 0.00 0.00 64 1015.3
20260905194921 78 331 1.7 1.7 0.00 0.00 0.00 68 1015.4
20260905194418 78 331 2.6 3.5 0.00 0.00 0.00 68 1015.5
20260905193918 77 331 0.0 2.6 0.00 0.00 0.00 70 1015.5
20260905193418 76 331 1.7 2.6 0.00 0.00 0.00 70 1015.6
20260905192921 76 331 0.9 2.6 0.00 0.00 0.00 70 1015.7
20260905192424 76 331 0.0 2.6 0.00 0.00 0.00 70 1015.7
20260905191924 76 331 1.7 1.7 0.00 0.00 0.00 72 1015.7
20260905191421 76 331 0.9 1.7 0.00 0.00 0.00 72 1015.8
20260905190918 76 331 0.0 0.0 0.00 0.00 0.00 74 1015.7
20260905190424 76 331 0.0 0.0 0.00 0.00 0.00 74 1015.7
20260905185921 75 331 0.0 0.9 0.00 0.00 0.00 73 1015.8
20260905185418 75 331 0.0 0.9 0.00 0.00 0.00 72 1015.8
20260905184918 75 331 0.9 1.7 0.00 0.00 0.00 73 1015.8
20260905184424 75 331 0.9 3.5 0.00 0.00 0.00 72 1015.8
20260905183918 75 331 0.9 1.7 0.00 0.00 0.00 72 1015.7
20260905183424 76 331 0.9 2.6 0.00 0.00 0.00 72 1015.8
20260905182918 76 331 1.7 3.5 0.00 0.00 0.00 72 1015.8
20260905182418 77 335 2.6 3.5 0.00 0.00 0.00 71 1015.7
20260905181918 77 316 4.3 4.3 0.00 0.00 0.00 70 1015.6
20260905181421 78 292 0.0 0.9 0.00 0.00 0.00 69 1015.7
20260905180918 79 292 0.0 0.9 0.00 0.00 0.00 66 1015.8
20260905180418 79 293 0.0 1.7 0.00 0.00 0.00 66 1016.1
20260905175921 80 292 0.9 2.6 0.00 0.00 0.00 63 1016.4
20260905175418 82 355 0.0 5.2 0.00 0.00 0.00 60 1016.6
20260905174918 84 86 5.2 6.1 0.00 0.00 0.00 56 1016.3
20260905174418 85 49 0.9 4.3 0.00 0.00 0.00 52 1016.2
20260905173918 87 76 1.7 8.7 0.00 0.00 0.00 50 1016.0
20260905173418 89 310 0.9 6.1 0.00 0.00 0.00 50 1015.6
20260905172927 90 29 1.7 7.0 0.00 0.00 0.00 56 1015.4
20260905172418 91 350 0.9 7.0 0.00 0.00 0.00 54 1015.2
20260905171921 91 324 1.7 6.1 0.00 0.00 0.00 54 1015.6
20260905171424 91 338 1.7 5.2 0.00 0.00 0.00 56 1015.4
20260905170918 91 96 1.7 4.3 0.00 0.00 0.00 55 1015.5
20260905170418 90 314 1.7 3.5 0.00 0.00 0.00 56 1015.3
20260905165921 90 319 2.6 4.3 0.00 0.00 0.00 56 1015.1
20260905165424 89 54 1.7 6.1 0.00 0.00 0.00 55 1015.0
20260905164921 89 0 1.7 2.6 0.00 0.00 0.00 55 1015.0
20260905164418 89 9 0.9 4.3 0.00 0.00 0.00 56 1015.2
20260905163918 88 315 0.0 7.0 0.00 0.00 0.00 56 1015.4
20260905163418 88 348 0.9 3.5 0.00 0.00 0.00 58 1015.5
20260905162921 88 86 0.0 2.6 0.00 0.00 0.00 58 1015.5
20260905162418 88 19 1.7 4.3 0.00 0.00 0.00 58 1015.7
20260905161918 88 349 2.6 3.5 0.00 0.00 0.00 59 1015.9
20260905161421 87 140 0.9 3.5 0.00 0.00 0.00 63 1015.8
20260905160918 87 123 0.0 3.5 0.00 0.00 0.00 61 1015.8
20260905160418 87 118 0.9 5.2 0.00 0.00 0.00 63 1015.8
20260905155924 86 146 1.7 2.6 0.00 0.00 0.00 63 1015.9
20260905155418 86 0 0.9 3.5 0.00 0.00 0.00 63 1016.0
20260905154918 86 335 2.6 5.2 0.00 0.00 0.00 64 1016.2
20260905154418 85 340 1.7 6.1 0.00 0.00 0.00 64 1016.1
20260905153918 85 336 3.5 6.1 0.00 0.00 0.00 65 1016.1
20260905153424 84 306 0.0 2.6 0.00 0.00 0.00 66 1016.0
20260905152918 84 302 2.6 2.6 0.00 0.00 0.00 69 1016.0
20260905152418 83 302 0.0 1.7 0.00 0.00 0.00 71 1015.8
20260905151924 83 302 1.7 3.5 0.00 0.00 0.00 71 1015.8
20260905151418 82 271 2.6 2.6 0.00 0.00 0.00 72 1015.7
20260905150921 81 259 0.0 0.9 0.00 0.00 0.00 75 1015.8
20260905150418 81 259 0.0 1.7 0.00 0.00 0.00 77 1015.8
20260905145918 80 259 0.0 1.7 0.00 0.00 0.00 79 1015.8
20260905145418 80 259 0.0 0.9 0.00 0.00 0.00 80 1015.8
20260905144924 79 259 0.9 0.9 0.00 0.00 0.00 80 1015.9
20260905144424 79 259 0.0 1.7 0.00 0.00 0.00 82 1015.9
20260905143918 78 259 0.0 1.7 0.00 0.00 0.00 82 1016.0
20260905143421 78 259 0.0 0.9 0.00 0.00 0.00 84 1016.0
20260905142924 77 259 0.0 0.0 0.00 0.00 0.00 85 1016.1
20260905142418 76 259 0.9 0.9 0.00 0.00 0.00 86 1016.1
20260905141918 76 259 0.0 0.0 0.00 0.00 0.00 87 1016.1
20260905141418 75 259 0.0 0.9 0.00 0.00 0.00 88 1016.1
20260905140918 75 259 0.0 1.7 0.00 0.00 0.00 89 1016.2
20260905140418 74 259 0.9 0.9 0.00 0.00 0.00 90 1016.1
20260905135924 74 259 0.0 0.9 0.00 0.00 0.00 91 1016.1
20260905135418 73 259 0.0 0.9 0.00 0.00 0.00 91 1016.2
20260905134918 73 259 0.0 0.9 0.00 0.00 0.00 92 1016.3
20260905134418 73 259 0.0 0.0 0.00 0.00 0.00 92 1016.3
20260905133918 72 259 0.0 0.9 0.00 0.00 0.00 92 1016.4
20260905133418 72 259 0.0 0.0 0.00 0.00 0.00 93 1016.4
20260905132921 72 259 0.0 0.0 0.00 0.00 0.00 92 1016.5
20260905132421 72 259 0.0 0.0 0.00 0.00 0.00 93 1016.6
20260905131918 72 259 0.0 0.9 0.00 0.00 0.00 93 1016.7
20260905131418 71 259 0.0 0.9 0.00 0.00 0.00 93 1016.9
20260905130918 71 259 0.0 0.9 0.00 0.00 0.00 93 1016.9
20260905130418 71 259 0.9 0.9 0.00 0.00 0.00 93 1016.9
20260905125921 71 259 0.0 0.0 0.00 0.00 0.00 93 1016.9
20260905125421 70 259 0.0 0.0 0.00 0.00 0.00 93 1017.0
20260905124918 70 259 0.0 0.0 0.00 0.00 0.00 93 1017.0
20260905124427 70 259 0.0 0.0 0.00 0.00 0.00 93 1017.0
20260905123918 70 259 0.0 0.9 0.00 0.00 0.00 93 1016.9
20260905123418 70 259 0.0 1.7 0.00 0.00 0.00 93 1016.9
20260905122918 69 259 0.0 1.7 0.00 0.00 0.00 93 1016.9
20260905122421 69 259 0.0 0.0 0.00 0.00 0.00 93 1017.0
20260905121924 69 259 0.0 0.0 0.00 0.00 0.00 93 1017.0
20260905121424 69 259 0.0 0.9 0.00 0.00 0.00 92 1017.0
20260905120918 68 259 0.0 0.0 0.00 0.00 0.00 92 1016.9
20260905120418 68 259 0.0 0.0 0.00 0.00 0.00 92 1017.0
20260905115918 68 259 0.0 0.0 0.00 0.00 0.00 92 1016.9
20260905115421 68 259 0.0 0.0 0.00 0.00 0.00 92 1016.9
20260905114921 68 259 0.0 0.0 0.00 0.00 0.00 92 1016.7
20260905114418 68 259 0.0 0.0 0.00 0.00 0.00 92 1016.7
20260905113921 68 259 0.0 0.9 0.00 0.00 0.00 91 1016.7
20260905113421 68 259 0.0 0.0 0.00 0.00 0.00 92 1016.7
20260905112918 68 259 0.0 0.0 0.00 0.00 0.00 92 1016.7
20260905112421 68 259 0.0 0.0 0.00 0.00 0.00 92 1016.6
20260905111918 68 259 0.0 0.9 0.00 0.00 0.00 92 1016.6
20260905111427 68 259 0.0 0.0 0.00 0.00 0.00 91 1016.5
20260905110918 68 259 0.0 0.0 0.00 0.00 0.00 91 1016.4
20260905110418 68 259 0.0 0.0 0.00 0.00 0.00 91 1016.4
20260905105918 68 259 0.0 0.0 0.00 0.00 0.00 91 1016.4
20260905105418 68 259 0.0 0.0 0.00 0.00 0.00 91 1016.2
20260905104918 68 259 0.0 0.0 0.00 0.00 0.00 91 1016.2
20260905104421 69 259 0.0 0.0 0.00 0.00 0.00 91 1016.3
20260905103921 69 259 0.0 0.0 0.00 0.00 0.00 91 1016.3
20260905103418 69 259 0.0 0.0 0.00 0.00 0.00 91 1016.2
20260905102921 69 259 0.0 0.0 0.00 0.00 0.00 91 1016.1
20260905102418 69 259 0.0 0.0 0.00 0.00 0.00 91 1016.1
20260905101924 69 259 0.0 0.0 0.00 0.00 0.00 91 1016.2
20260905101421 69 259 0.0 0.0 0.00 0.00 0.00 91 1016.2
20260905100921 69 259 0.0 0.0 0.00 0.00 0.00 91 1016.1
20260905100424 69 259 0.0 0.0 0.00 0.00 0.00 91 1016.1
20260905095921 69 259 0.0 0.0 0.00 0.00 0.00 91 1016.2
20260905095418 69 259 0.0 0.0 0.00 0.00 0.00 91 1016.2
20260905094918 69 259 0.0 0.0 0.00 0.00 0.00 91 1016.2
20260905094418 69 259 0.0 0.0 0.00 0.00 0.00 91 1016.2
20260905093918 69 259 0.0 0.0 0.00 0.00 0.00 91 1016.3
20260905093418 69 259 0.0 0.0 0.00 0.00 0.00 91 1016.4
20260905092918 69 259 0.0 0.0 0.00 0.00 0.00 91 1016.3
20260905092421 69 259 0.0 0.0 0.00 0.00 0.00 91 1016.4
20260905091918 69 259 0.0 0.0 0.00 0.00 0.00 91 1016.4
20260905091418 70 259 0.0 0.0 0.00 0.00 0.00 91 1016.5
20260905090924 70 259 0.0 0.0 0.00 0.00 0.00 91 1016.5
20260905090418 70 259 0.0 0.0 0.00 0.00 0.00 91 1016.6
20260905085918 70 259 0.0 0.0 0.00 0.00 0.00 91 1016.6
20260905085418 70 259 0.0 0.0 0.00 0.00 0.00 90 1016.6
20260905084921 70 259 0.0 0.0 0.00 0.00 0.00 90 1016.7
20260905084424 70 259 0.0 0.0 0.00 0.00 0.00 90 1016.8
20260905083918 70 259 0.0 0.0 0.00 0.00 0.00 90 1016.9
20260905083418 70 259 0.0 0.0 0.00 0.00 0.00 90 1017.0
20260905082924 70 259 0.0 0.0 0.00 0.00 0.00 90 1017.0
20260905082424 70 259 0.0 0.0 0.00 0.00 0.00 90 1016.9
20260905081918 70 259 0.0 0.0 0.00 0.00 0.00 90 1017.0
20260905081418 70 259 0.0 0.0 0.00 0.00 0.00 90 1017.1
20260905080918 70 259 0.0 0.0 0.00 0.00 0.00 90 1017.1
20260905080424 70 259 0.0 0.0 0.00 0.00 0.00 90 1017.2
20260905075924 70 259 0.0 0.0 0.00 0.00 0.00 90 1017.4
20260905075421 70 259 0.0 0.0 0.00 0.00 0.00 89 1017.3
20260905074921 70 259 0.0 0.0 0.00 0.00 0.00 88 1017.5
20260905074418 70 259 0.0 0.0 0.00 0.00 0.00 88 1017.5
20260905073918 70 259 0.0 0.0 0.00 0.00 0.00 88 1017.6
20260905073418 70 259 0.0 0.0 0.00 0.00 0.00 88 1017.5
20260905072921 70 259 0.0 0.0 0.00 0.00 0.00 88 1017.5
20260905072418 70 259 0.0 0.0 0.00 0.00 0.00 88 1017.6
20260905071921 70 259 0.0 0.0 0.00 0.00 0.00 88 1017.7
20260905071418 70 259 0.0 0.0 0.00 0.00 0.00 88 1017.6
20260905070921 70 259 0.0 0.0 0.00 0.00 0.00 88 1017.6
20260905070421 71 259 0.0 0.0 0.00 0.00 0.00 88 1017.7
20260905065924 71 259 0.0 0.0 0.00 0.00 0.00 88 1017.8
20260905065421 71 259 0.0 0.0 0.00 0.00 0.00 88 1018.0
20260905064918 71 259 0.0 0.0 0.00 0.00 0.00 88 1018.0
20260905064418 71 259 0.0 0.0 0.00 0.00 0.00 88 1018.0
20260905063918 71 259 0.0 0.0 0.00 0.00 0.00 88 1018.1
20260905063421 71 259 0.0 0.0 0.00 0.00 0.00 88 1018.0
20260905062921 71 259 0.0 0.0 0.00 0.00 0.00 88 1018.1
20260905062418 71 259 0.0 0.0 0.00 0.00 0.00 87 1018.2
20260905061918 71 259 0.0 0.0 0.00 0.00 0.00 87 1018.3
20260905061424 71 259 0.0 0.0 0.00 0.00 0.00 87 1018.4